Amritsar, India

2:00 AM IST on September 29, 2016 (GMT +0530)
Amritsar

Weather History for VIAR - April, 2014

Change the Weather History Date:

Thursday, April 3, 2014

  Actual Average Record
Temperature  
Mean Temperature 66 °F -  
Max Temperature 81 °F 85 °F 98 °F (2016)
Min Temperature 51 °F 61 °F 51 °F (1999)
Cooling Degree Days 1    
Growing Degree Days 16 (Base 50)    
Moisture  
Dew Point 57 °F    
Average Humidity 71    
Maximum Humidity 100    
Minimum Humidity 30    
Precipitation  
Precipitation 0.00 in - - ()
Sea Level Pressure  
Sea Level Pressure 29.90 in    
Wind  
Wind Speed 4 mph ()    
Max Wind Speed 14 mph    
Max Gust Speed -    
Visibility 3.0 miles    
Events      
Averages and records for this station are not official NWS values.
T = Trace of Precipitation, MM = Missing Value Source: Averaged Metar Reports

Daily Weather History Graph

Daily Weather History Graph

Search for Another Location

Airport or City:

Trip Planner

Search our weather history database for the weather conditions in past years. The results will help you decide how hot, cold, wet, or windy it might be!

Date:

Astronomy

Apr. 03, 2014 Rise Set
Actual Time 6:17 AM IST 6:51 PM IST
Civil Twilight 5:52 AM IST 7:16 PM IST
Nautical Twilight 5:24 AM IST 7:44 PM IST
Astronomical Twilight 4:54 AM IST 8:14 PM IST
Moon 8:36 AM IST (4/3) 10:33 PM IST (4/3)
Length of Visible Light 13h 23m
Length of Day
12h 34m
Waxing Crescent, 14% of the Moon is Illuminated
Apr 3
Waxing Crescent
Apr 7
First Quarter
Apr 15
Full
Apr 22
Last Quarter
Apr 29
New

Hourly Weather History & Observations

Time (IST) Temp. Heat Index Dew Point Humidity Pressure Visibility Wind Dir Wind Speed Gust Speed Precip Events Conditions
12:00 AM 60.8 °F - 55.4 °F 82% 29.86 in 2.5 mi Variable 8.1 mph - N/A   Mostly Cloudy
12:30 AM 59.0 °F - 55.4 °F 88% 29.86 in 2.5 mi North 5.8 mph - N/A   Mostly Cloudy
1:00 AM 59.0 °F - 55.4 °F 88% 29.86 in 2.5 mi Variable 4.6 mph - N/A   Mostly Cloudy
1:30 AM 59.0 °F - 55.4 °F 88% 29.86 in 2.5 mi Calm Calm - N/A   Mostly Cloudy
2:00 AM 55.4 °F - 53.6 °F 94% 29.86 in 2.2 mi Calm Calm - N/A   Scattered Clouds
2:30 AM 56 °F - 54 °F 90% 29.86 in 1 mi Calm Calm - -   Mist
2:30 AM 55.4 °F - 53.6 °F 94% 29.86 in 2.2 mi Calm Calm - N/A   Scattered Clouds
3:00 AM 55.4 °F - 53.6 °F 94% 29.86 in 2.2 mi Variable 2.3 mph - N/A   Scattered Clouds
3:30 AM 53.6 °F - 53.6 °F 100% 29.86 in 2.2 mi Variable 2.3 mph - N/A   Scattered Clouds
4:00 AM 55.4 °F - 53.6 °F 94% 29.86 in 2.2 mi Calm Calm - N/A   Scattered Clouds
5:00 AM 55.4 °F - 53.6 °F 94% 29.86 in 2.2 mi Variable 2.3 mph - N/A   Scattered Clouds
5:30 AM 58 °F - 54 °F 80% 29.86 in 1 mi NNE 8.1 mph - -   Mist
5:30 AM 57.2 °F - 53.6 °F 88% 29.86 in 2.2 mi Variable 8.1 mph - N/A   Scattered Clouds
6:00 AM 53.6 °F - 51.8 °F 94% 29.86 in 2.2 mi Calm Calm - N/A   Scattered Clouds
6:30 AM 53.6 °F - 51.8 °F 94% 29.86 in 2.2 mi NNW 4.6 mph - N/A   Scattered Clouds
7:00 AM 55.4 °F - 53.6 °F 94% 29.86 in 2.2 mi Calm Calm - N/A   Scattered Clouds
7:30 AM 57.2 °F - 55.4 °F 94% 29.89 in 2.2 mi Calm Calm - N/A   Mist
8:00 AM 59.0 °F - 55.4 °F 88% 29.89 in 2.2 mi NW 4.6 mph - N/A   Mist
8:30 AM 63 °F - 57 °F 74% 29.90 in 2 mi 2.3 mph - -   Mist
8:30 AM 62.6 °F - 57.2 °F 82% 29.92 in 2.5 mi Variable 2.3 mph - N/A   Mist
9:30 AM 69.8 °F - 59.0 °F 68% 29.92 in 3.1 mi Variable 1.2 mph - N/A   Haze
10:00 AM 71.6 °F - 59.0 °F 64% 29.95 in 3.7 mi West 4.6 mph - N/A   Unknown
10:30 AM 73.4 °F - 59.0 °F 61% 29.95 in 3.7 mi WNW 6.9 mph - N/A   Unknown
11:00 AM 75.2 °F - 57.2 °F 53% 29.95 in 3.7 mi NW 6.9 mph - N/A   Unknown
11:30 AM 77 °F - 60 °F 46% 29.93 in 2 mi SW 8.1 mph - -  
11:30 AM 77.0 °F - 60.8 °F 57% 29.95 in 3.7 mi Variable 8.1 mph - N/A   Unknown
12:00 PM 78.8 °F - 57.2 °F 47% 29.95 in 3.7 mi WNW 8.1 mph - N/A   Unknown
12:30 PM 78.8 °F - 57.2 °F 47% 29.95 in 3.7 mi WNW 10.4 mph - N/A   Unknown
1:00 PM 78.8 °F - 57.2 °F 47% 29.95 in 3.7 mi NW 11.5 mph - N/A   Unknown
1:30 PM 78.8 °F - 55.4 °F 44% 29.95 in 3.7 mi NW 11.5 mph - N/A   Unknown
2:00 PM 78.8 °F - 55.4 °F 44% 29.92 in 5.0 mi Variable 13.8 mph - N/A   Partly Cloudy
2:30 PM 80 °F - 54 °F 30% 29.88 in 2 mi NW 11.5 mph - -   Clear
2:30 PM 78.8 °F - 55.4 °F 44% 29.92 in 5.0 mi NW 11.5 mph - N/A   Partly Cloudy
3:00 PM 80.6 °F 80.8 °F 57.2 °F 45% 29.92 in 5.0 mi WNW 10.4 mph - N/A   Scattered Clouds
3:30 PM 80.6 °F 80.8 °F 57.2 °F 45% 29.92 in 5.0 mi WNW 9.2 mph - N/A   Scattered Clouds
4:00 PM 80.6 °F 80.8 °F 57.2 °F 45% 29.92 in 5.0 mi WNW 10.4 mph - N/A   Scattered Clouds
5:30 PM 79 °F - 58 °F 39% 29.86 in 2 mi West 9.2 mph - -   Scattered Clouds
6:00 PM 77.0 °F - 60.8 °F 57% 29.89 in 5.0 mi West 5.8 mph - N/A   Scattered Clouds
6:30 PM 75.2 °F - 60.8 °F 61% 29.89 in 4.3 mi Calm Calm - N/A   Scattered Clouds
7:00 PM 73.4 °F - 60.8 °F 65% 29.89 in 4.3 mi Calm Calm - N/A   Mostly Cloudy
7:30 PM 71.6 °F - 60.8 °F 69% 29.92 in 3.7 mi Calm Calm - N/A   Mostly Cloudy
8:00 PM 71.6 °F - 60.8 °F 69% 29.92 in 3.7 mi Calm Calm - N/A   Mostly Cloudy
8:30 PM 71 °F - 62 °F 65% 29.90 in 2 mi Calm Calm - -   Haze
8:30 PM 69.8 °F - 62.6 °F 78% 29.92 in 3.1 mi Calm Calm - N/A   Haze
9:00 PM 66.2 °F - 60.8 °F 83% 29.92 in 3.1 mi Calm Calm - N/A   Mostly Cloudy
9:30 PM 66.2 °F - 60.8 °F 83% 29.92 in 3.1 mi Calm Calm - N/A   Mostly Cloudy
10:00 PM 68.0 °F - 60.8 °F 78% 29.92 in 3.1 mi Calm Calm - N/A   Mostly Cloudy
10:30 PM 66.2 °F - 59.0 °F 78% 29.92 in 3.1 mi Calm Calm - N/A   Mostly Cloudy
11:00 PM 66.2 °F - 59.0 °F 78% 29.92 in 3.1 mi Calm Calm - N/A   Mostly Cloudy
11:30 PM 65 °F - 59 °F 76% 29.91 in 2 mi Calm Calm - -   Mist
11:30 PM 66.2 °F - 59.0 °F 78% 29.92 in 3.1 mi Calm Calm - N/A   Mostly Cloudy